User: anonymous   Login
Location: Agendoh
(31.0664°N, 8.9343°W)
Time: 15:38:09
(UTC+00:00)
Language:

Landsat 5 - Orbit

View from above orbital plane
View from above orbital plane
View from above satellite
View from above satellite

Ground track
Ground track

The orbit data is extracted from the following two-line orbital elements,

1 14780U 84021A   22145.61040585  .00002032  00000-0  18749-3 0  9997
2 14780  98.2047 342.5119 0088519   3.4212 356.7593 14.92963309569240
Epoch (UTC): 25 May 2022 14:38:59
Eccentricity: 0.0088519
inclination: 98.2047°
perigee height: 527 km
apogee height: 650 km
right ascension of ascending node: 342.5119°
argument of perigee: 3.4212°
revolutions per day: 14.92963309
mean anomaly at epoch: 356.7593°
orbit number at epoch: 56924

The dashed part of the orbit path shows where the satellite is in the earth's shadow,  

DLR